Zurück zum Katalog

ATLAS 5 CENTAUR R/B

AktivHEO
NORAD 44483·ROCKET BODY·🇺🇸 United States

Gestartet Aug 8, 2019 von Cape Canaveral Space Force Station

Loading…

Nächste Überflüge (nächste 24 Stunden)

TLE

AktuellSource: Space-Track

Epoche: Sep 13, 2026, 17:50 UTC

1 44483U 19051C   26256.74314617 -.00000080  00000-0  00000+0 0  9991
2 44483   7.3330 135.4030 3497587 117.7148 281.9677  1.59360131 41340

Verfolge ATLAS 5 CENTAUR R/B in Echtzeit mit AllMySat

Download on the App Store